[[{"header":{"parameterUnit":"m.s-1","parameterCategory":2,"la1":30.2991,"la2":30.254,"lo1":-89.0895,"lo2":-89.0444,"dy":0.0017,"dx":0.0017,"nx":28,"ny":28,"refTime":"2025-08-17T09:00:00:Z","depth":"0","parameterNumber":2,"parameterNumberName":"U-component_of_CURRENTS"},"data":[0,0,0,0,0,0,0,0,0,0,0,0,0,0,0,0,0,0,0,0,0,0,0,0,0,0,0,0,0,0,0,0,0,0,0,0,0,0,0,0,0,0,0,0,0,0,0,0,0,0,0,0,0,0,0,0,0,0,-0.2428,-0.2429,0,-0.2475,-0.2475,-0.2475,-0.2604,-0.2607,-0.261,-0.2614,-0.2782,-0.2783,-0.2784,0,0,0,0,0,0,0,0,0,0,0,0,0,-0.238,-0.238,-0.2428,-0.2429,-0.243,-0.2475,-0.2475,-0.2475,-0.2603,-0.2607,-0.2611,-0.2615,-0.2781,-0.2783,-0.2784,0,0,0,0,0,0,0,0,0,0,0,0,0,-0.2405,-0.238,-0.2428,-0.2505,-0.2513,-0.2475,-0.2475,-0.2475,-0.2602,-0.2607,-0.2612,-0.2617,-0.2781,-0.2783,-0.2785,-0.2694,0,0,-0.279,-0.2791,0,0,0,0,0,0,0,0,-0.2403,-0.2406,-0.2492,-0.25,-0.2508,-0.2545,-0.252,-0.2557,-0.2601,-0.2561,-0.2614,-0.262,-0.2714,-0.2722,-0.2708,-0.2702,-0.2709,-0.2791,-0.2792,-0.2793,-0.2793,0,0,0,0,0,0,0,-0.2402,-0.2404,-0.244,-0.2493,-0.2503,-0.2514,-0.2523,-0.2526,-0.2605,-0.2565,-0.2576,-0.259,-0.272,-0.2705,-0.2713,-0.2712,-0.2791,-0.2792,-0.2793,-0.2794,-0.2626,-0.2621,0,0,0,0,0,0,-0.2408,-0.2402,-0.2438,-0.2442,-0.2475,-0.2512,-0.2521,-0.2522,-0.2603,-0.2621,-0.2586,-0.2596,-0.27,-0.2711,-0.272,-0.2668,-0.2793,-0.2794,-0.2796,-0.2632,-0.2625,-0.2619,0,0,0,0,0,0,-0.2406,-0.2409,-0.2436,-0.243,-0.2435,-0.2508,-0.2507,-0.2521,-0.2539,-0.2619,-0.264,-0.2597,-0.2704,-0.2717,-0.2715,-0.2675,-0.2795,-0.2797,-0.2638,-0.263,-0.2622,-0.2533,0,0,0,0,0,0,-0.2404,-0.2408,-0.238,-0.2429,-0.2436,-0.2424,-0.2504,-0.2518,-0.2542,-0.2556,-0.2633,-0.2653,-0.2709,-0.2711,-0.2717,-0.268,-0.2799,-0.2645,-0.2634,-0.2624,-0.2543,-0.2523,-0.2505,0,0,0,0,0,-0.2402,-0.2341,-0.2378,-0.2382,-0.2405,-0.2424,-0.2426,-0.2491,-0.2537,-0.2528,-0.2566,-0.2652,-0.2648,-0.2709,-0.2717,-0.2679,-0.2651,-0.2637,-0.2625,-0.2552,-0.2527,-0.2505,0,0,0,0,0,0,-0.2283,-0.235,-0.2392,-0.235,-0.2396,-0.2449,-0.2424,-0.2481,-0.2496,-0.2512,-0.2595,-0.2613,-0.2587,-0.2616,-0.2681,-0.2583,-0.2655,-0.2643,-0.2596,-0.2573,-0.2554,-0.2543,-0.28,0,0,0,0,0,-0.2248,-0.2222,-0.231,-0.2262,-0.2291,-0.2357,-0.2364,-0.2422,-0.2457,-0.2471,-0.2524,-0.2541,-0.2523,-0.2545,-0.2535,-0.2496,-0.2503,-0.2461,-0.2443,-0.2427,-0.2411,-0.2371,-0.2349,-0.2577,-0.2577,-0.2577,0,0,-0.2171,-0.2211,-0.2187,-0.2235,-0.2268,-0.2277,-0.2372,-0.2385,-0.2386,-0.2481,-0.2469,-0.2481,-0.2489,-0.2443,-0.2433,-0.2483,-0.2355,-0.2411,-0.2399,-0.2391,-0.2356,-0.2334,-0.2316,-0.2568,-0.257,-0.2571,0,0,-0.2034,-0.2065,-0.2025,-0.2068,-0.214,-0.2189,-0.2201,-0.2274,-0.2307,-0.2295,-0.2339,-0.2322,-0.2325,-0.2318,-0.2312,-0.2168,-0.2246,-0.2162,-0.2087,-0.2047,-0.2031,-0.2016,-0.1978,-0.1961,-0.2169,-0.2169,-0.2168,0,-0.1939,-0.1937,-0.2007,-0.2008,-0.2037,-0.2153,-0.2147,-0.2167,-0.2223,-0.2231,-0.2282,-0.2227,-0.2253,-0.218,-0.213,-0.2134,-0.2127,-0.2196,-0.2031,-0.2016,-0.2003,-0.1968,-0.195,-0.2163,-0.2163,-0.2164,-0.2165,0,-0.1824,-0.1824,-0.1802,-0.1853,-0.1875,-0.1886,-0.1972,-0.1984,-0.2044,-0.208,-0.2042,-0.2052,-0.204,-0.2017,-0.2039,-0.1937,-0.1965,-0.2011,-0.2112,-0.1976,-0.1946,-0.1929,-0.2154,-0.2157,-0.2158,-0.216,0,0,-0.1644,-0.1708,-0.1711,-0.1744,-0.1821,-0.1843,-0.1821,-0.1862,-0.1865,-0.1889,-0.1869,-0.1812,-0.1857,-0.1844,-0.1867,-0.1823,-0.1718,-0.1874,-0.1875,-0.1877,-0.1629,-0.1563,-0.1539,-0.1755,-0.1751,-0.1749,-0.1643,0,-0.1557,-0.1546,-0.1595,-0.1584,-0.1612,-0.1698,-0.1677,-0.1714,-0.1757,-0.1758,-0.1764,-0.1747,-0.1784,-0.1786,-0.174,-0.174,-0.1671,-0.1742,-0.1724,-0.1723,-0.1715,-0.1516,-0.1417,-0.1306,-0.1627,-0.1624,-0.1622,0,-0.148,-0.1497,-0.1477,-0.1533,-0.1549,-0.1539,-0.1582,-0.1583,-0.1596,-0.1624,-0.1612,-0.1648,-0.1592,-0.1642,-0.1563,-0.1617,-0.1591,-0.1579,-0.1576,-0.1536,-0.1624,-0.149,-0.1265,-0.1257,-0.1598,-0.1599,-0.1601,0,-0.142,-0.1434,-0.1428,-0.1447,-0.1496,-0.1489,-0.1514,-0.1537,-0.1561,-0.1548,-0.1562,-0.1522,-0.1525,-0.1479,-0.1479,-0.1521,-0.1386,-0.1458,-0.1354,-0.1352,-0.1269,-0.1263,-0.1065,-0.134,-0.134,-0.1341,-0.1341,0,-0.1365,-0.1366,-0.1404,-0.1412,-0.1411,-0.1451,-0.1452,-0.1466,-0.1484,-0.1475,-0.1505,-0.1476,-0.1484,-0.1442,-0.1424,-0.1328,-0.1348,-0.1278,-0.1292,-0.1228,-0.122,-0.1216,-0.1266,-0.1337,-0.1338,-0.1338,-0.1339,0,-0.1312,-0.1337,-0.1343,-0.1376,-0.1392,-0.1394,-0.1453,-0.1467,-0.1471,-0.1453,-0.145,-0.1446,-0.1367,-0.1357,-0.1275,-0.1259,-0.1139,-0.1131,-0.1052,-0.1054,-0.0953,-0.1002,-0.0849,-0.0825,-0.0987,-0.0984,-0.0982,0,-0.1282,-0.1277,-0.1319,-0.1344,-0.1362,-0.1388,-0.1423,-0.1458,-0.146,-0.1414,-0.139,-0.1326,-0.1204,-0.1081,-0.1045,-0.0952,-0.1002,-0.0828,-0.0863,-0.0861,-0.0929,-0.0999,-0.0998,-0.0719,-0.0714,-0.0711,-0.0708,0,-0.1223,-0.1237,-0.1251,-0.1304,-0.1346,-0.1349,-0.1372,-0.1368,-0.1366,-0.1301,-0.1134,-0.1014,-0.0933,-0.0747,-0.0698,-0.0686,-0.0799,-0.0752,-0.076,-0.0668,-0.0722,-0.0736,-0.09,-0.0677,-0.068,-0.0682,-0.0684,-0.0685,-0.1174,-0.118,-0.1212,-0.1257,-0.1288,-0.1229,-0.1157,-0.1142,-0.1034,-0.0833,-0.0829,-0.0565,-0.0425,-0.0315,-0.0391,-0.044,-0.0548,-0.0422,-0.0473,-0.0539,-0.0514,-0.0595,-0.0393,-0.0394,-0.0396,-0.0397,-0.0398,0,-0.1108,-0.1132,-0.1175,-0.1161,-0.1112,-0.1149,-0.107,-0.0934,-0.0699,-0.0558,-0.0319,0.0005,0.0143,0.0073,0.002,-0.0088,-0.022,-0.0188,-0.0262,-0.027,-0.0318,-0.0303,-0.006,-0.006,-0.006,-0.006,-0.006,-0.006,-0.1078,-0.1095,-0.1126,-0.0998,-0.0947,-0.0759,-0.0647,-0.046,-0.0307,0.0035,0.0235,0.0342,0.0381,0.0389,0.0209,0.0089,-0.0031,-0.0089,-0.0171,-0.0214,-0.0242,-0.0268,-0.0261,-0.0013,-0.0013,-0.008,-0.008,-0.0081]},{"header":{"parameterUnit":"m.s-1","parameterCategory":2,"la1":30.2991,"la2":30.254,"lo1":-89.0895,"lo2":-89.0444,"dy":0.0017,"dx":0.0017,"nx":28,"ny":28,"refTime":"2025-08-17T09:00:00:Z","depth":"0","parameterNumber":3,"parameterNumberName":"V-component_of_CURRENTS"},"data":[0,0,0,0,0,0,0,0,0,0,0,0,0,0,0,0,0,0,0,0,0,0,0,0,0,0,0,0,0,0,0,0,0,0,0,0,0,0,0,0,0,0,0,0,0,0,0,0,0,0,0,0,0,0,0,0,0,0,-0.0306,-0.0304,0,-0.0087,-0.0085,-0.0082,0.0105,0.0107,0.0109,0.0111,0.0398,0.0403,0.0409,0,0,0,0,0,0,0,0,0,0,0,0,0,-0.0539,-0.0536,-0.0307,-0.0304,-0.0301,-0.0088,-0.0085,-0.0081,0.0105,0.0107,0.011,0.0112,0.0396,0.0402,0.0409,0,0,0,0,0,0,0,0,0,0,0,0,0,-0.0391,-0.0535,-0.0307,-0.0183,-0.0169,-0.0088,-0.0084,-0.0081,0.0104,0.0108,0.0111,0.0114,0.0393,0.0402,0.041,0.0401,0,0,0.0436,0.044,0,0,0,0,0,0,0,0,-0.04,-0.0382,-0.0204,-0.0191,-0.0176,-0.0015,-0.0061,0.0084,0.0104,0.0001,0.0111,0.0115,0.0263,0.0283,0.0316,0.0415,0.0427,0.0437,0.0442,0.0446,0.0448,0,0,0,0,0,0,0,-0.041,-0.0391,-0.0219,-0.0201,-0.0184,-0.0129,-0.0105,-0.0033,0.0113,0.001,0.0024,0.0047,0.0272,0.0308,0.0325,0.0431,0.0437,0.0444,0.045,0.0453,0.0601,0.06,0,0,0,0,0,0,-0.0442,-0.0401,-0.0226,-0.0213,-0.0283,-0.0128,-0.01,-0.007,0.0112,0.0142,0.0044,0.0055,0.0292,0.0315,0.0336,0.0416,0.0446,0.0454,0.0459,0.0602,0.0601,0.0599,0,0,0,0,0,0,-0.0448,-0.0428,-0.0235,-0.0302,-0.0274,-0.0127,-0.0094,-0.0067,-0.0018,0.0137,0.0169,0.0067,0.0295,0.0324,0.0416,0.0425,0.0458,0.0466,0.0603,0.0602,0.06,0.0525,0,0,0,0,0,0,-0.0455,-0.0432,-0.0427,-0.0305,-0.0271,-0.0182,-0.0096,-0.0065,-0.0009,0.0008,0.0166,0.0196,0.03,0.0403,0.0425,0.0438,0.0472,0.0605,0.0603,0.06,0.0529,0.052,0.0514,0,0,0,0,0,-0.0464,-0.0456,-0.0428,-0.0407,-0.0267,-0.0183,-0.0161,-0.0046,-0.0012,0.0008,0.0117,0.0192,0.0404,0.0409,0.0435,0.0451,0.0606,0.0603,0.0601,0.0532,0.0522,0.0514,0,0,0,0,0,0,-0.0538,-0.0433,-0.0399,-0.0356,-0.0281,-0.015,-0.0122,-0.0065,0.0032,0.005,0.0186,0.0223,0.031,0.0369,0.0371,0.0479,0.0512,0.0514,0.0451,0.0442,0.0435,0.0404,0.0479,0,0,0,0,0,-0.0564,-0.0532,-0.0429,-0.0395,-0.0366,-0.0259,-0.0215,-0.0144,-0.0042,0.0004,0.0108,0.0212,0.0311,0.0368,0.0459,0.0512,0.0524,0.0531,0.0524,0.0517,0.0506,0.0501,0.0492,0.059,0.059,0.059,0,0,-0.0576,-0.0521,-0.0497,-0.0411,-0.0345,-0.0301,-0.0223,-0.0161,-0.0113,0.0016,0.0102,0.0193,0.0318,0.0401,0.0441,0.0458,0.0495,0.0514,0.0508,0.05,0.0497,0.0487,0.0479,0.0588,0.0589,0.0589,0,0,-0.0589,-0.0548,-0.0528,-0.0483,-0.0402,-0.0337,-0.0331,-0.022,-0.0158,-0.0081,0.003,0.0117,0.0252,0.0354,0.0421,0.041,0.0455,0.0429,0.0377,0.0372,0.0364,0.0357,0.0357,0.0351,0.0425,0.0425,0.0425,0,-0.0607,-0.057,-0.051,-0.0487,-0.0452,-0.0365,-0.0339,-0.0271,-0.0143,-0.0108,-0.0063,0.0115,0.0235,0.0334,0.0356,0.0399,0.039,0.041,0.0361,0.0355,0.0349,0.0351,0.0345,0.0421,0.0421,0.0422,0.0422,0,-0.0602,-0.0581,-0.057,-0.0514,-0.0476,-0.0441,-0.0353,-0.0313,-0.0249,-0.0179,-0.009,0.0049,0.0154,0.0204,0.0299,0.0321,0.0326,0.0353,0.0384,0.0334,0.034,0.0335,0.0415,0.0417,0.0418,0.0419,0,0,-0.0603,-0.0571,-0.0567,-0.056,-0.0491,-0.0454,-0.0408,-0.0334,-0.0302,-0.0214,-0.0171,-0.0005,0.0039,0.0114,0.0216,0.0232,0.0218,0.0269,0.0271,0.0268,0.0189,0.0233,0.0233,0.0219,0.0218,0.0217,0.0209,0,-0.0609,-0.06,-0.0572,-0.0555,-0.0542,-0.0483,-0.0442,-0.0377,-0.0308,-0.0251,-0.0151,-0.0063,0.0014,0.007,0.009,0.0206,0.0199,0.0216,0.024,0.024,0.0284,0.0227,0.0278,0.0278,0.0205,0.0204,0.0203,0,-0.0605,-0.0604,-0.0603,-0.0584,-0.0572,-0.0551,-0.0497,-0.0448,-0.0366,-0.0314,-0.026,-0.0177,-0.0094,-0.0042,0.0044,0.0041,0.0096,0.0155,0.0156,0.0219,0.0275,0.0316,0.0272,0.0314,0.0196,0.0197,0.0197,0,-0.0637,-0.0621,-0.063,-0.0622,-0.0585,-0.0577,-0.0547,-0.0475,-0.0429,-0.0364,-0.0329,-0.026,-0.0184,-0.015,0.0003,0.0005,0.0073,0.0096,0.0166,0.0171,0.0232,0.0244,0.0232,0.0098,0.0098,0.0098,0.0098,0,-0.0652,-0.0657,-0.0652,-0.0657,-0.0662,-0.062,-0.0602,-0.056,-0.0492,-0.0414,-0.0371,-0.0293,-0.0213,-0.0137,-0.0054,0.0051,0.002,0.014,0.0164,0.0208,0.0217,0.0274,0.0294,0.0097,0.0098,0.0098,0.0098,0,-0.0681,-0.0678,-0.0691,-0.0681,-0.0681,-0.0684,-0.0643,-0.0599,-0.0554,-0.0455,-0.0434,-0.0327,-0.0223,-0.015,-0.0043,0.0014,0.0138,0.0133,0.0186,0.0216,0.0306,0.0321,0.0327,0.0391,0.0177,0.0178,0.0179,0,-0.0693,-0.0706,-0.0723,-0.0734,-0.0734,-0.0731,-0.0695,-0.0636,-0.0553,-0.0432,-0.0351,-0.0273,-0.0115,0.0001,0.006,0.0137,0.0194,0.0232,0.0252,0.03,0.0334,0.0334,0.0388,0.0303,0.0304,0.0306,0.0307,0,-0.0717,-0.0727,-0.0745,-0.0765,-0.0752,-0.07,-0.0631,-0.0578,-0.0441,-0.0338,-0.0127,-0.0019,0.0059,0.0187,0.0216,0.0264,0.0281,0.0263,0.0295,0.0407,0.0423,0.0501,0.032,0.0319,0.0318,0.0317,0.0317,0.0316,-0.0733,-0.0761,-0.0776,-0.0779,-0.0732,-0.0593,-0.0512,-0.0384,-0.0213,0.0044,0.0106,0.0338,0.0368,0.0418,0.0405,0.0396,0.0381,0.0454,0.046,0.0448,0.0529,0.0376,0.0417,0.0417,0.0416,0.0416,0.0415,0,-0.0743,-0.0757,-0.0775,-0.0718,-0.0581,-0.0571,-0.0389,-0.0242,0.0025,0.0248,0.0484,0.0735,0.0742,0.0676,0.0604,0.0612,0.0604,0.0628,0.0636,0.0679,0.0528,0.0555,0.065,0.065,0.065,0.065,0.065,0.065,-0.0752,-0.0769,-0.0765,-0.0552,-0.0468,-0.0227,-0.0086,0.0104,0.0298,0.0697,0.0942,0.1105,0.1061,0.0829,0.0746,0.0754,0.0813,0.079,0.0818,0.0707,0.069,0.0675,0.0704,0.0829,0.0829,0.0993,0.0994,0.0996]}],[{"header":{"parameterUnit":"m.s-1","parameterCategory":2,"la1":30.2991,"la2":30.254,"lo1":-89.0895,"lo2":-89.0444,"dy":0.0017,"dx":0.0017,"nx":28,"ny":28,"refTime":"2025-08-17T09:00:00:Z","depth":"2","parameterNumber":2,"parameterNumberName":"U-component_of_CURRENTS"},"data":[0,0,0,0,0,0,0,0,0,0,0,0,0,0,0,0,0,0,0,0,0,0,0,0,0,0,0,0,0,0,0,0,0,0,0,0,0,0,0,0,0,0,0,0,0,0,0,0,0,0,0,0,0,0,0,0,0,0,-0.1673,-0.1675,0,-0.1788,-0.179,-0.1791,-0.1892,-0.1893,-0.1894,-0.1895,-0.1979,-0.198,-0.1981,0,0,0,0,0,0,0,0,0,0,0,0,0,-0.1598,-0.1599,-0.1673,-0.1675,-0.1676,-0.1788,-0.179,-0.1791,-0.1892,-0.1893,-0.1895,-0.1896,-0.1979,-0.198,-0.1982,0,0,0,0,0,0,0,0,0,0,0,0,0,-0.1664,-0.1599,-0.1673,-0.1739,-0.1746,-0.1788,-0.179,-0.1792,-0.1891,-0.1893,-0.1895,-0.1896,-0.1978,-0.198,-0.1982,-0.1959,0,0,-0.1987,-0.1988,0,0,0,0,0,0,0,0,-0.166,-0.1667,-0.1728,-0.1735,-0.1743,-0.1827,-0.1794,-0.1846,-0.1891,-0.1837,-0.1895,-0.1897,-0.1924,-0.193,-0.1949,-0.1963,-0.1966,-0.1987,-0.1988,-0.1989,-0.199,0,0,0,0,0,0,0,-0.1655,-0.1663,-0.1719,-0.173,-0.1739,-0.1783,-0.1794,-0.1805,-0.1869,-0.1842,-0.1849,-0.1861,-0.1928,-0.1947,-0.1952,-0.1968,-0.1987,-0.1989,-0.199,-0.1991,-0.2025,-0.2025,0,0,0,0,0,0,-0.1635,-0.1658,-0.1716,-0.1723,-0.1704,-0.1783,-0.1795,-0.1799,-0.187,-0.1883,-0.1859,-0.1865,-0.1943,-0.195,-0.1955,-0.1952,-0.1989,-0.1991,-0.1992,-0.2025,-0.2025,-0.2025,0,0,0,0,0,0,-0.1633,-0.1639,-0.1711,-0.1693,-0.1705,-0.1782,-0.1786,-0.18,-0.1839,-0.1884,-0.1896,-0.1886,-0.1945,-0.1952,-0.1973,-0.1955,-0.1992,-0.1993,-0.2025,-0.2025,-0.2025,-0.1933,0,0,0,0,0,0,-0.163,-0.1637,-0.164,-0.1691,-0.1706,-0.1728,-0.1785,-0.1801,-0.1842,-0.1852,-0.1909,-0.1918,-0.1947,-0.197,-0.1975,-0.1958,-0.1995,-0.2026,-0.2025,-0.2025,-0.1936,-0.1929,-0.1924,0,0,0,0,0,-0.1627,-0.1627,-0.1639,-0.1647,-0.1704,-0.1728,-0.1739,-0.18,-0.1842,-0.1845,-0.1891,-0.1918,-0.1972,-0.1971,-0.1976,-0.196,-0.2026,-0.2025,-0.2025,-0.1939,-0.193,-0.1924,0,0,0,0,0,0,-0.1603,-0.1638,-0.1653,-0.1665,-0.1688,-0.1745,-0.1759,-0.1801,-0.1842,-0.186,-0.1908,-0.1919,-0.1951,-0.1961,-0.1958,-0.1973,-0.2006,-0.2006,-0.1938,-0.1931,-0.1925,-0.1872,-0.1996,0,0,0,0,0,-0.1593,-0.1599,-0.1633,-0.1641,-0.1648,-0.1703,-0.1726,-0.1764,-0.1805,-0.1829,-0.1866,-0.1908,-0.1949,-0.1944,-0.1992,-0.1967,-0.1962,-0.1966,-0.196,-0.1954,-0.1917,-0.1903,-0.1891,-0.2024,-0.2024,-0.2024,0,0,-0.1587,-0.1606,-0.1612,-0.1635,-0.166,-0.1665,-0.1721,-0.175,-0.1755,-0.1826,-0.1844,-0.1905,-0.1952,-0.1957,-0.1966,-0.1955,-0.1915,-0.1954,-0.1948,-0.1914,-0.1902,-0.1888,-0.1876,-0.2024,-0.2024,-0.2024,0,0,-0.1566,-0.1588,-0.1579,-0.1594,-0.1624,-0.1649,-0.1655,-0.1704,-0.1725,-0.1748,-0.1815,-0.1827,-0.1896,-0.1888,-0.1904,-0.1876,-0.1915,-0.1932,-0.1813,-0.1801,-0.1788,-0.1777,-0.1747,-0.1734,-0.1888,-0.1888,-0.1888,0,-0.1557,-0.1553,-0.158,-0.1575,-0.159,-0.1636,-0.1633,-0.1647,-0.1699,-0.171,-0.1746,-0.1832,-0.1844,-0.1835,-0.1818,-0.1853,-0.1873,-0.1834,-0.1788,-0.1777,-0.1768,-0.1739,-0.1726,-0.1884,-0.1884,-0.1885,-0.1885,0,-0.1522,-0.1528,-0.1524,-0.1527,-0.1541,-0.1548,-0.1567,-0.1581,-0.1623,-0.1649,-0.1681,-0.1698,-0.1739,-0.1746,-0.1763,-0.1713,-0.176,-0.1813,-0.1795,-0.1748,-0.1723,-0.171,-0.1877,-0.1879,-0.188,-0.1881,0,0,-0.1474,-0.1495,-0.1493,-0.1499,-0.1523,-0.1532,-0.1524,-0.1534,-0.1541,-0.157,-0.1573,-0.1581,-0.1612,-0.1626,-0.1652,-0.1589,-0.1507,-0.1652,-0.1654,-0.16,-0.149,-0.1422,-0.1403,-0.1584,-0.1582,-0.158,-0.1496,0,-0.1437,-0.1426,-0.1445,-0.144,-0.1441,-0.1479,-0.1468,-0.1487,-0.1513,-0.152,-0.1518,-0.1547,-0.1563,-0.1581,-0.1523,-0.1554,-0.1476,-0.1525,-0.1562,-0.1561,-0.1488,-0.1385,-0.1295,-0.1206,-0.1485,-0.1483,-0.1481,0,-0.1388,-0.1394,-0.1384,-0.1413,-0.1415,-0.1414,-0.1431,-0.1431,-0.1441,-0.1465,-0.1474,-0.1515,-0.1443,-0.1469,-0.1411,-0.1469,-0.1445,-0.1435,-0.1434,-0.1384,-0.1468,-0.1303,-0.1174,-0.1461,-0.1463,-0.1464,-0.1466,0,-0.1345,-0.1353,-0.1349,-0.1357,-0.1386,-0.1388,-0.1401,-0.1419,-0.1425,-0.1426,-0.1445,-0.1425,-0.1415,-0.1392,-0.1362,-0.1407,-0.1301,-0.1371,-0.1271,-0.1268,-0.1194,-0.1187,-0.128,-0.128,-0.128,-0.1281,-0.1281,0,-0.1304,-0.1301,-0.133,-0.1331,-0.1329,-0.136,-0.136,-0.1374,-0.139,-0.1385,-0.1412,-0.1395,-0.14,-0.1364,-0.1341,-0.1252,-0.1286,-0.12,-0.122,-0.1161,-0.1152,-0.1391,-0.1405,-0.1277,-0.1278,-0.1279,-0.1279,0,-0.1258,-0.1277,-0.1278,-0.1303,-0.1312,-0.1312,-0.1347,-0.134,-0.1368,-0.136,-0.1361,-0.1368,-0.1308,-0.1291,-0.1231,-0.1208,-0.1141,-0.1097,-0.1009,-0.1017,-0.1122,-0.1133,-0.0972,-0.0969,-0.0966,-0.0963,-0.0961,0,-0.1232,-0.1227,-0.1253,-0.1255,-0.1265,-0.1278,-0.1279,-0.1319,-0.1313,-0.1331,-0.1309,-0.1271,-0.1216,-0.1107,-0.103,-0.0942,-0.1022,-0.0825,-0.0849,-0.1043,-0.1081,-0.1097,-0.1111,-0.0724,-0.072,-0.0717,-0.0715,0,-0.118,-0.119,-0.1194,-0.1193,-0.1195,-0.12,-0.1206,-0.1206,-0.1234,-0.1234,-0.1199,-0.1163,-0.105,-0.0912,-0.0802,-0.0747,-0.0838,-0.0756,-0.0968,-0.0818,-0.0802,-0.0843,-0.0866,-0.0686,-0.0689,-0.0691,-0.0693,-0.0694,-0.1134,-0.1126,-0.1122,-0.111,-0.1111,-0.1083,-0.1058,-0.107,-0.1051,-0.1013,-0.1049,-0.0958,-0.0921,-0.0685,-0.0605,-0.0527,-0.06,-0.0588,-0.06,-0.0616,-0.0603,-0.0583,-0.0423,-0.0424,-0.0425,-0.0426,-0.0427,0,-0.1063,-0.105,-0.1036,-0.1007,-0.0954,-0.0989,-0.0968,-0.0924,-0.0866,-0.0846,-0.081,-0.0687,-0.057,-0.0523,-0.0354,-0.0314,-0.0336,-0.0298,-0.0351,-0.0377,-0.0401,-0.0382,-0.014,-0.014,-0.0139,-0.0139,0,0,-0.1023,-0.0973,-0.0954,-0.0833,-0.0816,-0.0724,-0.0693,-0.066,-0.0624,-0.0552,-0.0504,-0.0529,-0.0511,-0.0355,-0.0292,-0.0192,-0.0284,-0.0158,-0.0383,-0.0471,-0.0495,-0.0553,-0.055,0,0,0,0,0]},{"header":{"parameterUnit":"m.s-1","parameterCategory":2,"la1":30.2991,"la2":30.254,"lo1":-89.0895,"lo2":-89.0444,"dy":0.0017,"dx":0.0017,"nx":28,"ny":28,"refTime":"2025-08-17T09:00:00:Z","depth":"2","parameterNumber":3,"parameterNumberName":"V-component_of_CURRENTS"},"data":[0,0,0,0,0,0,0,0,0,0,0,0,0,0,0,0,0,0,0,0,0,0,0,0,0,0,0,0,0,0,0,0,0,0,0,0,0,0,0,0,0,0,0,0,0,0,0,0,0,0,0,0,0,0,0,0,0,0,-0.0332,-0.0331,0,-0.0249,-0.0248,-0.0246,-0.0182,-0.0181,-0.0181,-0.018,-0.0073,-0.0071,-0.0068,0,0,0,0,0,0,0,0,0,0,0,0,0,-0.0405,-0.0404,-0.0332,-0.0331,-0.033,-0.0249,-0.0248,-0.0246,-0.0182,-0.0181,-0.0181,-0.018,-0.0074,-0.0071,-0.0068,0,0,0,0,0,0,0,0,0,0,0,0,0,-0.0351,-0.0404,-0.0332,-0.029,-0.0285,-0.0249,-0.0247,-0.0246,-0.0182,-0.0181,-0.018,-0.018,-0.0075,-0.0071,-0.0068,-0.0059,0,0,-0.0057,-0.0055,0,0,0,0,0,0,0,0,-0.0354,-0.0348,-0.0297,-0.0293,-0.0287,-0.0227,-0.0234,-0.0183,-0.0182,-0.0219,-0.018,-0.0179,-0.0124,-0.0116,-0.01,-0.0054,-0.0049,-0.0056,-0.0054,-0.0053,-0.0052,0,0,0,0,0,0,0,-0.0358,-0.0351,-0.0297,-0.0296,-0.029,-0.0265,-0.0256,-0.0224,-0.0174,-0.0216,-0.0211,-0.0205,-0.0121,-0.0103,-0.0097,-0.0048,-0.0057,-0.0053,-0.0051,-0.005,0.0023,0.0023,0,0,0,0,0,0,-0.0375,-0.0355,-0.03,-0.0295,-0.0322,-0.0264,-0.0255,-0.0245,-0.0175,-0.0164,-0.0206,-0.0203,-0.011,-0.0101,-0.0093,-0.0057,-0.0053,-0.0049,-0.0047,0.0023,0.0023,0.0023,0,0,0,0,0,0,-0.0376,-0.037,-0.0303,-0.0325,-0.0315,-0.0264,-0.0254,-0.0244,-0.0223,-0.0168,-0.0157,-0.0195,-0.0109,-0.0098,-0.0074,-0.0053,-0.0048,-0.0044,0.0024,0.0023,0.0023,0.0001,0,0,0,0,0,0,-0.0379,-0.0371,-0.0371,-0.0326,-0.0314,-0.0287,-0.0254,-0.0243,-0.0221,-0.0216,-0.0155,-0.0144,-0.0108,-0.008,-0.007,-0.0048,-0.0041,0.0024,0.0023,0.0023,0.0002,-0.0,-0.0002,0,0,0,0,0,-0.0382,-0.0382,-0.0371,-0.0364,-0.0314,-0.0288,-0.0279,-0.024,-0.0222,-0.0217,-0.0183,-0.0146,-0.0075,-0.0078,-0.0066,-0.0042,0.0024,0.0024,0.0023,0.0003,0.0,-0.0002,0,0,0,0,0,0,-0.0412,-0.0375,-0.0361,-0.035,-0.0326,-0.0278,-0.0269,-0.0245,-0.0212,-0.0206,-0.0155,-0.0142,-0.0101,-0.0084,-0.0088,-0.0026,-0.0017,-0.0016,-0.0036,-0.0038,-0.004,-0.0067,-0.0038,0,0,0,0,0,-0.0421,-0.0413,-0.0375,-0.0369,-0.0358,-0.0316,-0.03,-0.0274,-0.0241,-0.0224,-0.0184,-0.0143,-0.0096,-0.008,-0.0036,-0.0018,-0.0001,0.0005,0.0003,0.0001,-0.0015,0.0027,0.0028,0.0021,0.0021,0.0021,0,0,-0.0433,-0.0412,-0.0407,-0.0376,-0.0352,-0.0334,-0.0304,-0.0283,-0.0264,-0.0219,-0.0186,-0.0141,-0.009,-0.0054,-0.0035,-0.0039,0.0011,0.0,-0.0001,-0.0016,0.0027,0.0027,0.0028,0.002,0.0021,0.0021,0,0,-0.0451,-0.0433,-0.043,-0.0411,-0.038,-0.0352,-0.035,-0.0305,-0.0282,-0.0254,-0.0203,-0.0174,-0.0106,-0.0074,-0.0046,-0.0044,0.0009,-0.0009,-0.0049,-0.0008,-0.0007,-0.0005,0.0013,0.0016,-0.0023,-0.0023,-0.0023,0,-0.0467,-0.0454,-0.0427,-0.0417,-0.0402,-0.0363,-0.0354,-0.0325,-0.0279,-0.0259,-0.0249,-0.015,-0.012,-0.0067,-0.0069,-0.0047,-0.0015,-0.0039,-0.001,-0.0008,-0.0007,0.0012,0.0015,-0.0024,-0.0024,-0.0024,-0.0023,0,-0.0475,-0.0467,-0.0465,-0.0437,-0.042,-0.0408,-0.0367,-0.0345,-0.0313,-0.0278,-0.0222,-0.0185,-0.0132,-0.0109,-0.0091,-0.0053,-0.003,-0.0004,-0.0003,-0.0007,0.0012,0.0016,-0.0025,-0.0025,-0.0025,-0.0024,0,0,-0.05,-0.0477,-0.0475,-0.047,-0.0429,-0.0416,-0.0387,-0.0346,-0.0323,-0.0279,-0.0246,-0.019,-0.0164,-0.0135,-0.0096,-0.0081,-0.0057,-0.0047,-0.0044,-0.0029,0.0034,0.0052,0.0059,-0.0004,-0.0004,-0.0003,0.0042,0,-0.0513,-0.0512,-0.0488,-0.0481,-0.0474,-0.0432,-0.0409,-0.0367,-0.0325,-0.0285,-0.0239,-0.0192,-0.0171,-0.0148,-0.0123,-0.0062,-0.0045,-0.0072,0.0035,0.0037,0.0055,0.0064,0.006,0.01,0.0046,0.0047,0.0047,0,-0.0518,-0.0519,-0.0523,-0.0503,-0.0495,-0.0483,-0.0437,-0.0411,-0.0343,-0.031,-0.0257,-0.0208,-0.0173,-0.0159,-0.0074,-0.008,-0.0036,-0.0,0.0004,0.0028,0.0063,0.0097,0.011,0.0054,0.0053,0.0053,0.0053,0,-0.0547,-0.0537,-0.0546,-0.0539,-0.0511,-0.0502,-0.048,-0.042,-0.0393,-0.033,-0.0301,-0.023,-0.0196,-0.0129,-0.006,-0.0056,0.0035,0.0052,0.0108,0.0109,0.0125,0.0127,0.0104,0.0104,0.0104,0.0104,0.0103,0,-0.0564,-0.0568,-0.0565,-0.057,-0.0574,-0.0538,-0.0522,-0.0485,-0.0428,-0.0394,-0.0322,-0.0277,-0.0183,-0.0111,-0.0055,0.004,0.0044,0.0096,0.0126,0.0116,0.0117,0.0091,0.0089,0.0105,0.0105,0.0105,0.0104,0,-0.0587,-0.0586,-0.0598,-0.0591,-0.059,-0.0593,-0.056,-0.0543,-0.0483,-0.0438,-0.0421,-0.0307,-0.0207,-0.0113,-0.0004,0.0046,0.0126,0.0159,0.0128,0.0153,0.0167,0.0163,0.0218,0.0219,0.022,0.0221,0.0222,0,-0.0598,-0.061,-0.0626,-0.064,-0.0641,-0.0639,-0.0634,-0.0581,-0.0559,-0.0452,-0.0434,-0.0317,-0.0225,-0.0055,0.006,0.0171,0.0167,0.0219,0.0212,0.0157,0.018,0.0175,0.017,0.022,0.022,0.0221,0.0221,0,-0.062,-0.063,-0.0646,-0.0681,-0.0694,-0.07,-0.0689,-0.0677,-0.0605,-0.0552,-0.046,-0.0377,-0.0182,-0.0037,0.0121,0.0185,0.0198,0.0232,0.0205,0.0191,0.0163,0.0184,0.0179,0.0226,0.0225,0.0225,0.0225,0.0224,-0.0636,-0.066,-0.0688,-0.0717,-0.0737,-0.0752,-0.0744,-0.0719,-0.0678,-0.0571,-0.0504,-0.0347,-0.0203,0.0048,0.015,0.0261,0.0258,0.0271,0.0268,0.0265,0.0256,0.0232,0.0304,0.0304,0.0304,0.0304,0.0304,0,-0.0651,-0.0681,-0.0717,-0.0752,-0.0773,-0.0777,-0.0768,-0.0732,-0.068,-0.0576,-0.0479,-0.0298,-0.0129,0.004,0.022,0.03,0.0292,0.031,0.0278,0.0274,0.027,0.026,0.0311,0.0311,0.0311,0.0311,0,0,-0.0662,-0.0703,-0.0725,-0.0771,-0.0791,-0.0795,-0.0785,-0.0725,-0.0638,-0.0513,-0.039,-0.0281,-0.0088,0.0021,0.0133,0.0235,0.023,0.0245,0.0234,0.018,0.0174,0.0246,0.0226,0,0,0,0,0]}],[{"header":{"parameterUnit":"m.s-1","parameterCategory":2,"la1":30.2991,"la2":30.254,"lo1":-89.0895,"lo2":-89.0444,"dy":0.0017,"dx":0.0017,"nx":28,"ny":28,"refTime":"2025-08-17T09:00:00:Z","depth":"4","parameterNumber":2,"parameterNumberName":"U-component_of_CURRENTS"},"data":[0,0,0,0,0,0,0,0,0,0,0,0,0,0,0,0,0,0,0,0,0,0,0,0,0,0,0,0,0,0,0,0,0,0,0,0,0,0,0,0,0,0,0,0,0,0,0,0,0,0,0,0,0,0,0,0,0,0,-0.1049,-0.1049,0,-0.1033,-0.1033,-0.1033,-0.105,-0.105,-0.1051,-0.1051,-0.1073,-0.1073,-0.1073,0,0,0,0,0,0,0,0,0,0,0,0,0,-0.1067,-0.1067,-0.1049,-0.1049,-0.1049,-0.1033,-0.1033,-0.1033,-0.105,-0.105,-0.1051,-0.1051,-0.1073,-0.1073,-0.1073,0,0,0,0,0,0,0,0,0,0,0,0,0,-0.1058,-0.1067,-0.1049,-0.1054,-0.1054,-0.1033,-0.1033,-0.1033,-0.1049,-0.105,-0.1051,-0.1051,-0.1073,-0.1073,-0.1073,-0.106,0,0,-0.1074,-0.1074,0,0,0,0,0,0,0,0,-0.1059,-0.1058,-0.1053,-0.1053,-0.1053,-0.1043,-0.1048,-0.1044,-0.1049,-0.1053,-0.1051,-0.1052,-0.1065,-0.1065,-0.1063,-0.1061,-0.1062,-0.1074,-0.1074,-0.1074,-0.1074,0,0,0,0,0,0,0,-0.1059,-0.1058,-0.1045,-0.1053,-0.1053,-0.1047,-0.1047,-0.1047,-0.1057,-0.1053,-0.1053,-0.1048,-0.1065,-0.1063,-0.1064,-0.1062,-0.1074,-0.1074,-0.1074,-0.1074,-0.1097,-0.1098,0,0,0,0,0,0,-0.1058,-0.1059,-0.1045,-0.1044,-0.1056,-0.1046,-0.1046,-0.1047,-0.1056,-0.1057,-0.1048,-0.1049,-0.1062,-0.1063,-0.1064,-0.1082,-0.1074,-0.1074,-0.1074,-0.1097,-0.1097,-0.1098,0,0,0,0,0,0,-0.1059,-0.1057,-0.1046,-0.1049,-0.1047,-0.1045,-0.1046,-0.1046,-0.106,-0.1052,-0.1054,-0.1063,-0.1062,-0.1064,-0.1069,-0.1081,-0.1074,-0.1074,-0.1096,-0.1097,-0.1097,-0.1095,0,0,0,0,0,0,-0.1059,-0.1058,-0.1071,-0.105,-0.1047,-0.1039,-0.1045,-0.1045,-0.1054,-0.1056,-0.1065,-0.1067,-0.1063,-0.1069,-0.107,-0.1082,-0.1075,-0.1095,-0.1096,-0.1097,-0.1095,-0.1096,-0.1097,0,0,0,0,0,-0.106,-0.1069,-0.1072,-0.1071,-0.1061,-0.1039,-0.1037,-0.1039,-0.1054,-0.1056,-0.1062,-0.1068,-0.1076,-0.1069,-0.107,-0.1082,-0.1095,-0.1096,-0.1097,-0.1094,-0.1096,-0.1097,0,0,0,0,0,0,-0.1082,-0.107,-0.1074,-0.1079,-0.1063,-0.1041,-0.1048,-0.1048,-0.1054,-0.1067,-0.1065,-0.1066,-0.1073,-0.108,-0.1073,-0.1093,-0.109,-0.1091,-0.1088,-0.1089,-0.109,-0.1089,-0.1075,0,0,0,0,0,-0.1093,-0.1101,-0.1078,-0.1085,-0.108,-0.1069,-0.1067,-0.1065,-0.1059,-0.1064,-0.1068,-0.1077,-0.1075,-0.1085,-0.1081,-0.1093,-0.109,-0.1105,-0.1106,-0.1107,-0.1107,-0.1119,-0.1121,-0.1101,-0.1101,-0.1101,0,0,-0.1105,-0.1098,-0.1105,-0.1091,-0.1085,-0.1075,-0.1071,-0.1069,-0.1066,-0.1065,-0.1076,-0.1075,-0.1076,-0.1081,-0.1088,-0.1093,-0.1107,-0.1108,-0.1109,-0.1109,-0.112,-0.1122,-0.1124,-0.1102,-0.1102,-0.1102,0,0,-0.1112,-0.1125,-0.1126,-0.1117,-0.1105,-0.1095,-0.1097,-0.1082,-0.1084,-0.1082,-0.1083,-0.1084,-0.1093,-0.1088,-0.1089,-0.1096,-0.1104,-0.1112,-0.1125,-0.1136,-0.1138,-0.1139,-0.1118,-0.1118,-0.1123,-0.1123,-0.1123,0,-0.1127,-0.1122,-0.1121,-0.1114,-0.1111,-0.1106,-0.1099,-0.1095,-0.1085,-0.1091,-0.109,-0.1101,-0.109,-0.11,-0.1096,-0.1096,-0.1102,-0.1117,-0.1137,-0.1138,-0.114,-0.1118,-0.1117,-0.1123,-0.1123,-0.1123,-0.1123,0,-0.1116,-0.1125,-0.1125,-0.1118,-0.1117,-0.1111,-0.11,-0.1108,-0.1114,-0.111,-0.1121,-0.1105,-0.1117,-0.1114,-0.1101,-0.1116,-0.1115,-0.1127,-0.1131,-0.1141,-0.1118,-0.1117,-0.1123,-0.1123,-0.1123,-0.1123,0,0,-0.1103,-0.1116,-0.1115,-0.1119,-0.112,-0.1111,-0.1123,-0.112,-0.1131,-0.1133,-0.1144,-0.1131,-0.1139,-0.1139,-0.1134,-0.1138,-0.1127,-0.1142,-0.1142,-0.1115,-0.114,-0.104,-0.1029,-0.1158,-0.1158,-0.1158,-0.1112,0,-0.1089,-0.1085,-0.1096,-0.1099,-0.1095,-0.1113,-0.1119,-0.1128,-0.1135,-0.1145,-0.1148,-0.1151,-0.1146,-0.115,-0.1156,-0.1135,-0.1131,-0.1137,-0.1139,-0.1138,-0.1044,-0.1027,-0.116,-0.1112,-0.1111,-0.1111,-0.1111,0,-0.1056,-0.1062,-0.1066,-0.1091,-0.1092,-0.11,-0.1123,-0.1127,-0.1151,-0.1159,-0.1185,-0.1187,-0.1188,-0.1179,-0.1171,-0.1185,-0.1161,-0.1143,-0.1141,-0.1049,-0.1037,-0.1105,-0.111,-0.111,-0.111,-0.1111,-0.1111,0,-0.1022,-0.1037,-0.1045,-0.1051,-0.1078,-0.1095,-0.1111,-0.1137,-0.1143,-0.1172,-0.1181,-0.1205,-0.1198,-0.1202,-0.116,-0.1177,-0.1137,-0.1157,-0.1042,-0.1034,-0.1141,-0.1141,-0.1145,-0.1145,-0.1145,-0.1145,-0.1145,0,-0.0985,-0.0992,-0.1034,-0.1036,-0.105,-0.108,-0.1096,-0.1119,-0.1148,-0.1143,-0.1188,-0.1177,-0.1207,-0.1187,-0.1166,-0.1087,-0.1146,-0.1028,-0.1016,-0.1139,-0.1138,-0.1139,-0.1139,-0.1143,-0.1144,-0.1144,-0.1144,0,-0.094,-0.0968,-0.098,-0.102,-0.1033,-0.1043,-0.1083,-0.1083,-0.1128,-0.1123,-0.1132,-0.1157,-0.112,-0.1123,-0.1096,-0.1065,-0.1016,-0.0973,-0.1074,-0.1071,-0.0906,-0.0907,-0.0849,-0.0845,-0.0841,-0.0839,-0.0836,0,-0.0913,-0.0917,-0.0962,-0.0966,-0.0986,-0.101,-0.1014,-0.1064,-0.1058,-0.1086,-0.1065,-0.1056,-0.1053,-0.0939,-0.096,-0.091,-0.0898,-0.0878,-0.0914,-0.0882,-0.0877,-0.0882,-0.0888,-0.0831,-0.083,-0.0829,-0.0828,0,-0.0862,-0.0889,-0.09,-0.0906,-0.0915,-0.0921,-0.0932,-0.0925,-0.0959,-0.1016,-0.0961,-0.0935,-0.0881,-0.0859,-0.0815,-0.0789,-0.0903,-0.0844,-0.0851,-0.0885,-0.086,-0.0859,-0.0868,-0.0817,-0.0818,-0.082,-0.082,0,-0.0825,-0.0819,-0.0831,-0.0823,-0.0833,-0.0804,-0.0834,-0.0812,-0.0818,-0.086,-0.0833,-0.0827,-0.0855,-0.0791,-0.0755,-0.0715,-0.0712,-0.0708,-0.0723,-0.0736,-0.0721,-0.0674,-0.0548,0,0,0,0,0,-0.0779,-0.0751,-0.0739,-0.0719,-0.0724,-0.0724,-0.0753,-0.0784,-0.0826,-0.0756,-0.0794,-0.0737,-0.0683,-0.0691,-0.0622,-0.0698,-0.0713,-0.0617,-0.0718,-0.0753,-0.0766,-0.0758,0,0,0,0,0,0,-0.0741,-0.0732,-0.0706,-0.062,-0.059,-0.0578,-0.0594,-0.0634,-0.0606,-0.0663,-0.0634,-0.0685,-0.064,-0.0693,-0.0601,-0.0601,-0.0648,-0.0625,-0.0623,-0.0745,-0.0757,-0.0768,-0.0765,0,0,0,0,0]},{"header":{"parameterUnit":"m.s-1","parameterCategory":2,"la1":30.2991,"la2":30.254,"lo1":-89.0895,"lo2":-89.0444,"dy":0.0017,"dx":0.0017,"nx":28,"ny":28,"refTime":"2025-08-17T09:00:00:Z","depth":"4","parameterNumber":3,"parameterNumberName":"V-component_of_CURRENTS"},"data":[0,0,0,0,0,0,0,0,0,0,0,0,0,0,0,0,0,0,0,0,0,0,0,0,0,0,0,0,0,0,0,0,0,0,0,0,0,0,0,0,0,0,0,0,0,0,0,0,0,0,0,0,0,0,0,0,0,0,-0.0268,-0.0268,0,-0.0261,-0.0261,-0.0261,-0.0272,-0.0272,-0.0272,-0.0273,-0.0282,-0.0282,-0.0282,0,0,0,0,0,0,0,0,0,0,0,0,0,-0.0287,-0.0287,-0.0268,-0.0268,-0.0268,-0.0261,-0.0261,-0.0261,-0.0272,-0.0272,-0.0273,-0.0273,-0.0282,-0.0282,-0.0282,0,0,0,0,0,0,0,0,0,0,0,0,0,-0.028,-0.0287,-0.0268,-0.0272,-0.0273,-0.0261,-0.0261,-0.0261,-0.0272,-0.0272,-0.0273,-0.0273,-0.0282,-0.0282,-0.0282,-0.027,0,0,-0.0281,-0.0281,0,0,0,0,0,0,0,0,-0.028,-0.0279,-0.0272,-0.0272,-0.0272,-0.0268,-0.0271,-0.0265,-0.0271,-0.0272,-0.0273,-0.0273,-0.0278,-0.0278,-0.0276,-0.0271,-0.0271,-0.0281,-0.0281,-0.0281,-0.0281,0,0,0,0,0,0,0,-0.0281,-0.0279,-0.0266,-0.0272,-0.0272,-0.0273,-0.0273,-0.027,-0.0273,-0.0272,-0.0273,-0.0272,-0.0279,-0.0276,-0.0276,-0.0271,-0.0281,-0.0281,-0.0281,-0.0281,-0.0291,-0.0292,0,0,0,0,0,0,-0.0281,-0.028,-0.0266,-0.0265,-0.0277,-0.0273,-0.0272,-0.0269,-0.0272,-0.0273,-0.0271,-0.0272,-0.0276,-0.0276,-0.0277,-0.0292,-0.0281,-0.0281,-0.0281,-0.0291,-0.0291,-0.0292,0,0,0,0,0,0,-0.0281,-0.0279,-0.0266,-0.0273,-0.0271,-0.0272,-0.0268,-0.0268,-0.0272,-0.0271,-0.0273,-0.0275,-0.0276,-0.0277,-0.0288,-0.0291,-0.0281,-0.0281,-0.0291,-0.0291,-0.0292,-0.0304,0,0,0,0,0,0,-0.0282,-0.0279,-0.0282,-0.0272,-0.0271,-0.0271,-0.0267,-0.0268,-0.027,-0.0271,-0.0275,-0.0276,-0.0277,-0.0288,-0.0288,-0.0291,-0.0281,-0.029,-0.0291,-0.0291,-0.0303,-0.0305,-0.0306,0,0,0,0,0,-0.0282,-0.0286,-0.0282,-0.0281,-0.0272,-0.0271,-0.0271,-0.0273,-0.027,-0.0277,-0.0281,-0.0276,-0.0292,-0.0288,-0.0288,-0.0291,-0.029,-0.0291,-0.0291,-0.0302,-0.0304,-0.0306,0,0,0,0,0,0,-0.03,-0.0287,-0.0283,-0.0283,-0.0282,-0.0273,-0.028,-0.0274,-0.0281,-0.0283,-0.0281,-0.0283,-0.0296,-0.0291,-0.0287,-0.0296,-0.029,-0.029,-0.0298,-0.03,-0.0302,-0.0277,-0.0281,0,0,0,0,0,-0.0303,-0.0302,-0.029,-0.0294,-0.0291,-0.0284,-0.0284,-0.0283,-0.0283,-0.0286,-0.0288,-0.029,-0.0296,-0.0297,-0.0304,-0.0304,-0.0273,-0.0306,-0.0307,-0.0308,-0.0288,-0.0246,-0.0241,-0.0294,-0.0294,-0.0294,0,0,-0.0312,-0.0305,-0.0306,-0.0298,-0.0295,-0.0293,-0.0286,-0.0288,-0.0288,-0.0286,-0.0293,-0.03,-0.03,-0.0309,-0.0313,-0.0304,-0.0282,-0.0309,-0.0311,-0.0289,-0.0246,-0.024,-0.0235,-0.0295,-0.0295,-0.0295,0,0,-0.0329,-0.0322,-0.0325,-0.0321,-0.0315,-0.0307,-0.0307,-0.03,-0.0302,-0.0308,-0.0308,-0.0309,-0.0322,-0.0314,-0.0313,-0.0323,-0.0297,-0.0335,-0.0315,-0.0275,-0.0269,-0.0264,-0.0232,-0.0224,-0.0329,-0.0329,-0.0329,0,-0.0342,-0.0339,-0.0329,-0.0328,-0.0325,-0.0313,-0.0313,-0.031,-0.0309,-0.0302,-0.0316,-0.0311,-0.0318,-0.0305,-0.0315,-0.0324,-0.03,-0.0309,-0.0274,-0.0268,-0.0263,-0.0231,-0.0222,-0.0329,-0.0329,-0.0329,-0.0329,0,-0.0354,-0.0354,-0.0357,-0.0347,-0.0343,-0.0345,-0.0331,-0.0328,-0.0326,-0.0316,-0.0311,-0.0315,-0.0303,-0.0315,-0.032,-0.0287,-0.0284,-0.0286,-0.0265,-0.0258,-0.0226,-0.0216,-0.033,-0.033,-0.033,-0.033,0,0,-0.0374,-0.0367,-0.0368,-0.0368,-0.0352,-0.0351,-0.0342,-0.0326,-0.0313,-0.0312,-0.0292,-0.03,-0.0286,-0.0283,-0.0284,-0.0251,-0.0206,-0.0251,-0.0249,-0.0212,-0.0118,-0.0132,-0.0123,-0.0202,-0.0201,-0.0199,-0.0117,0,-0.0387,-0.0395,-0.0382,-0.0387,-0.0387,-0.0365,-0.0358,-0.0339,-0.0326,-0.0305,-0.0283,-0.0278,-0.0279,-0.028,-0.0241,-0.0222,-0.0178,-0.0228,-0.0137,-0.0134,-0.014,-0.0111,-0.0193,-0.0109,-0.0107,-0.0105,-0.0104,0,-0.0394,-0.04,-0.041,-0.0402,-0.0399,-0.04,-0.0373,-0.0365,-0.0321,-0.0309,-0.0272,-0.0257,-0.0213,-0.0221,-0.0138,-0.0171,-0.0135,-0.0113,-0.011,-0.0104,-0.0128,-0.0115,-0.0085,-0.0087,-0.0088,-0.0089,-0.009,0,-0.041,-0.0413,-0.0426,-0.0424,-0.0414,-0.0413,-0.0405,-0.0368,-0.0356,-0.0307,-0.029,-0.0229,-0.0208,-0.0144,-0.0101,-0.0115,-0.0008,-0.0023,0.0008,0.0006,-0.0,-0.0007,0.006,0.0059,0.0059,0.0059,0.0059,0,-0.0418,-0.0427,-0.044,-0.0446,-0.0458,-0.0438,-0.0434,-0.041,-0.0372,-0.0352,-0.0295,-0.0265,-0.0187,-0.0125,-0.0078,-0.0003,0.0017,0.0031,0.0036,-0.0012,-0.002,0.0006,-0.0001,0.0062,0.0061,0.0061,0.006,0,-0.0426,-0.0435,-0.0453,-0.0462,-0.0467,-0.0476,-0.0466,-0.0458,-0.0415,-0.0384,-0.0371,-0.0283,-0.0199,-0.0118,-0.0018,0.0017,0.0088,0.0111,0.0058,0.0055,0.0072,0.0063,0.0165,0.0165,0.0166,0.0166,0.0166,0,-0.0428,-0.0441,-0.0474,-0.0494,-0.0504,-0.0515,-0.052,-0.0488,-0.0475,-0.04,-0.0386,-0.0291,-0.023,-0.0086,-0.0005,0.011,0.0115,0.0153,0.012,0.0093,0.0088,0.0078,0.0068,0.0167,0.0167,0.0167,0.0167,0,-0.0435,-0.0456,-0.0475,-0.052,-0.0545,-0.0559,-0.0564,-0.0553,-0.0508,-0.0473,-0.0392,-0.0303,-0.0198,-0.0087,0.0007,0.0081,0.0128,0.0157,0.0156,0.0125,0.0096,0.0088,0.0079,0.0168,0.0168,0.0168,0.0168,0,-0.0445,-0.0468,-0.0504,-0.0538,-0.0573,-0.0592,-0.0589,-0.0566,-0.0541,-0.0457,-0.0434,-0.0308,-0.0233,-0.0101,-0.0019,0.0061,0.0074,0.0082,0.0086,0.0086,0.003,-0.0021,0.0039,0,0,0,0,0,-0.045,-0.0479,-0.0516,-0.0553,-0.0588,-0.0605,-0.0611,-0.06,-0.0558,-0.051,-0.0467,-0.0369,-0.0217,-0.0142,-0.0063,-0.0022,0.008,0.0071,0.0088,0.0175,0.0173,0.0119,0,0,0,0,0,0,-0.0457,-0.0497,-0.0516,-0.0558,-0.0581,-0.0613,-0.0619,-0.0594,-0.0558,-0.0505,-0.0422,-0.0364,-0.0215,-0.0261,-0.0064,-0.0036,-0.002,0.0149,0.0151,0.0176,0.0174,0.0173,0.0117,0,0,0,0,0]}]]